User: anonymous   Login
Location: Great Northern Moose Lodge
(44.6765°N, 71.1811°W)
Time: 03:42:39
(UTC-05:00)
Language:

Terra - Orbit

View from above orbital plane
View from above orbital plane
View from above satellite
View from above satellite

Ground track
Ground track

The orbit data is extracted from the following two-line orbital elements,

1 25994U 99068A   14353.71567838  .00000842  00000-0  19695-3 0  9337
2 25994 098.2087 065.7897 0001044 105.4667 254.6649 14.57103828798082
Epoch (UTC): 19 December 2014 17:10:34
Eccentricity: 0.0001044
inclination: 98.2087°
perigee height: 702 km
apogee height: 703 km
right ascension of ascending node: 65.7897°
argument of perigee: 105.4667°
revolutions per day: 14.57103828
mean anomaly at epoch: 254.6649°
orbit number at epoch: 79808

The dashed part of the orbit path shows where the satellite is in the earth's shadow,  

DLR